sat.trackr.live / text

‹ back to catalog

STARLINK-4644

NORAD 53719 · 2022-107V

PAYLOAD ACTIVE UNKNOWN

§ Identity

Operator
Country
US
Launch date
2022-09-05
Launch site
AFETR
Launch vehicle
Mass (kg)
RCS (m²)

Purposes: comms

External: N2YO · Heavens-Above · Gunter

§ Orbital elements

Epoch: 2026-09-20T21:07:21.327744Z

Period
93.85 min
Inclination
53.1615°
Eccentricity
0.0001351
Mean motion
15.34390094 rev/d
Perigee alt
461.8 km
Apogee alt
463.7 km
Semi-major
6,840.9 km
B*
4.8128e-5
RAAN
60.0323°
Arg perigee
82.3156°
Mean anomaly
277.8000°
Rev number
22,440

§ Raw data

STARLINK-46441 53719U 22107V   26263.88010796  .00001250  00000+0  48128-4 0  99992 53719  53.1615  60.0323 0001351  82.3156 277.8000 15.34390094224401

JSON: /api/v1/satellites/53719 · /tle

For live sub-satellite position, see the globe view (requires WebGL).

§ Visibility from observer

Set your observer location to see the next 7 days of passes ≥ 10°. The values pass through the URL so the page stays shareable.

No JS? Fill the form by hand. The geolocation button needs JavaScript.